• En España
  • Lista de países
  • Para 7 días
  • Temperatura del agua
  • Mapa Satelital
  • El tiempo en el mapa
  • Informadores
  • user-avatar
    Iniciar sesión

    Tiempo cada hora Santo Tirso

    Hoy, 19 Enero, Viernes

    Tiempo Temperatura Precipitaciones Viento Presión Humedad
    00:00 +9°C° 0 mm 3 mps 761 mmHg 89%
    01:00 +9°C° 0 mm 3 mps 761 mmHg 90%
    02:00 +9°C° 0 mm 2 mps 761 mmHg 90%
    03:00 +9°C° 0 mm 3 mps 761 mmHg 90%
    04:00 +9°C° 0 mm 3 mps 761 mmHg 91%
    05:00 +9°C° 0 mm 3 mps 761 mmHg 91%
    06:00 +9°C° 0 mm 3 mps 761 mmHg 90%
    07:00 +9°C° 0 mm 3 mps 762 mmHg 90%
    08:00 +10°C° 0 mm 3 mps 762 mmHg 89%
    09:00 +11°C° 0 mm 3 mps 762 mmHg 81%
    10:00 +13°C° 0 mm 3 mps 762 mmHg 72%
    11:00 +16°C° 0 mm 3 mps 763 mmHg 64%
    12:00 +17°C° 0 mm 3 mps 762 mmHg 61%
    13:00 +17°C° 0 mm 3 mps 762 mmHg 59%
    14:00 +17°C° 0 mm 3 mps 762 mmHg 57%
    15:00 +14°C° 0 mm 3 mps 762 mmHg 65%
    16:00 +13°C° 0 mm 3 mps 763 mmHg 72%
    17:00 +11°C° 0 mm 3 mps 763 mmHg 80%
    18:00 +10°C° 0 mm 3 mps 764 mmHg 82%
    19:00 +10°C° 0 mm 3 mps 764 mmHg 83%
    20:00 +9°C° 0 mm 3 mps 765 mmHg 85%
    21:00 +9°C° 0 mm 2 mps 765 mmHg 83%
    22:00 +9°C° 0 mm 2 mps 765 mmHg 82%
    23:00 +9°C° 0 mm 1 mps 765 mmHg 80%

    Mañana, 20 Enero, Sábado

    Tiempo Temperatura Precipitaciones Viento Presión Humedad
    00:00 +9°C° 0 mm 1 mps 765 mmHg 79%
    01:00 +9°C° 0 mm 1 mps 765 mmHg 78%
    02:00 +9°C° 0 mm 1 mps 765 mmHg 76%
    03:00 +8°C° 0 mm 1 mps 765 mmHg 76%
    04:00 +8°C° 0 mm 1 mps 765 mmHg 76%
    05:00 +8°C° 0 mm 1 mps 765 mmHg 76%
    06:00 +8°C° 0 mm 1 mps 765 mmHg 75%
    07:00 +9°C° 0 mm 1 mps 766 mmHg 74%
    08:00 +9°C° 0 mm 1 mps 766 mmHg 74%
    09:00 +11°C° 0 mm 1 mps 766 mmHg 72%
    10:00 +12°C° 0 mm 1 mps 766 mmHg 70%
    11:00 +14°C° 0 mm 1 mps 766 mmHg 68%
    12:00 +14°C° 0 mm 2 mps 766 mmHg 71%
    13:00 +15°C° 0 mm 2 mps 765 mmHg 74%
    14:00 +15°C° 0 mm 2 mps 765 mmHg 77%
    15:00 +14°C° 0 mm 1 mps 765 mmHg 82%
    16:00 +13°C° 0 mm 1 mps 766 mmHg 87%
    17:00 +12°C° 0 mm 1 mps 766 mmHg 92%
    18:00 +12°C° 0 mm 1 mps 766 mmHg 92%
    19:00 +12°C° 0 mm 1 mps 767 mmHg 93%
    20:00 +12°C° 0 mm 1 mps 767 mmHg 93%
    21:00 +12°C° 0 mm 1 mps 767 mmHg 94%
    22:00 +12°C° 0 mm 1 mps 767 mmHg 95%
    23:00 +12°C° 0 mm 1 mps 767 mmHg 96%

    Pasado mañana, 21 Enero, Domingo

    Tiempo Temperatura Precipitaciones Viento Presión Humedad
    00:00 +12°C° 0 mm 1 mps 767 mmHg 96%
    01:00 +12°C° 0 mm 1 mps 767 mmHg 96%
    02:00 +12°C° 0 mm 1 mps 767 mmHg 96%
    03:00 +12°C° 0 mm 1 mps 767 mmHg 96%
    04:00 +11°C° 0 mm 1 mps 767 mmHg 96%
    05:00 +11°C° 0 mm 1 mps 767 mmHg 96%
    06:00 +11°C° 0 mm 1 mps 767 mmHg 95%
    07:00 +12°C° 0 mm 1 mps 767 mmHg 94%
    08:00 +12°C° 0 mm 1 mps 767 mmHg 93%
    09:00 +13°C° 0 mm 1 mps 767 mmHg 88%
    10:00 +15°C° 0 mm 1 mps 767 mmHg 82%
    11:00 +16°C° 0 mm 1 mps 767 mmHg 77%
    12:00 +16°C° 0 mm 1 mps 767 mmHg 75%
    13:00 +18°C° 0 mm 1 mps 766 mmHg 74%
    14:00 +18°C° 0 mm 1 mps 766 mmHg 72%
    15:00 +15°C° 0 mm 1 mps 766 mmHg 78%
    16:00 +14°C° 0 mm 1 mps 766 mmHg 84%
    17:00 +13°C° 0 mm 1 mps 766 mmHg 90%
    18:00 +12°C° 0 mm 1 mps 766 mmHg 90%
    19:00 +12°C° 0 mm 1 mps 767 mmHg 91%
    20:00 +11°C° 0 mm 1 mps 767 mmHg 92%
    21:00 +11°C° 0 mm 1 mps 767 mmHg 92%
    22:00 +11°C° 0 mm 1 mps 767 mmHg 92%
    23:00 +11°C° 0 mm 1 mps 767 mmHg 92%

    22 Enero, Lunes

    Tiempo Temperatura Precipitaciones Viento Presión Humedad
    00:00 +10°C° 0 mm 1 mps 767 mmHg 92%
    01:00 +10°C° 0 mm 1 mps 767 mmHg 92%
    02:00 +10°C° 0 mm 1 mps 766 mmHg 92%
    03:00 +10°C° 0 mm 1 mps 766 mmHg 91%
    04:00 +10°C° 0 mm 1 mps 766 mmHg 91%
    05:00 +10°C° 0 mm 1 mps 766 mmHg 90%
    06:00 +10°C° 0 mm 1 mps 766 mmHg 89%
    07:00 +10°C° 0 mm 1 mps 766 mmHg 87%
    08:00 +11°C° 0 mm 1 mps 767 mmHg 86%
    09:00 +13°C° 0 mm 1 mps 767 mmHg 78%
    10:00 +15°C° 0 mm 1 mps 767 mmHg 70%
    11:00 +18°C° 0 mm 1 mps 767 mmHg 63%
    12:00 +18°C° 0 mm 1 mps 766 mmHg 60%
    13:00 +19°C° 0 mm 1 mps 766 mmHg 58%
    14:00 +19°C° 0 mm 1 mps 765 mmHg 55%
    15:00 +16°C° 0 mm 1 mps 765 mmHg 64%
    16:00 +14°C° 0 mm 1 mps 766 mmHg 73%
    17:00 +12°C° 0 mm 1 mps 766 mmHg 82%
    18:00 +12°C° 0 mm 1 mps 766 mmHg 83%
    19:00 +11°C° 0 mm 1 mps 766 mmHg 83%
    20:00 +11°C° 0 mm 1 mps 767 mmHg 84%
    21:00 +10°C° 0 mm 1 mps 767 mmHg 81%
    22:00 +10°C° 0 mm 1 mps 767 mmHg 78%
    23:00 +10°C° 0 mm 1 mps 767 mmHg 75%

    23 Enero, Martes

    Tiempo Temperatura Precipitaciones Viento Presión Humedad
    00:00 +9°C° 0 mm 1 mps 766 mmHg 71%
    01:00 +9°C° 0 mm 1 mps 766 mmHg 68%
    02:00 +9°C° 0 mm 1 mps 766 mmHg 64%
    03:00 +9°C° 0 mm 1 mps 766 mmHg 62%
    04:00 +9°C° 0 mm 1 mps 766 mmHg 60%
    05:00 +9°C° 0 mm 1 mps 766 mmHg 57%
    06:00 +9°C° 0 mm 1 mps 766 mmHg 56%
    07:00 +9°C° 0 mm 1 mps 766 mmHg 55%
    08:00 +9°C° 0 mm 1 mps 766 mmHg 54%
    09:00 +12°C° 0 mm 1 mps 766 mmHg 50%
    10:00 +14°C° 0 mm 1 mps 766 mmHg 45%
    11:00 +18°C° 0 mm 1 mps 766 mmHg 40%
    12:00 +18°C° 0 mm 1 mps 765 mmHg 40%
    13:00 +19°C° 0 mm 1 mps 765 mmHg 39%
    14:00 +20°C° 0 mm 1 mps 764 mmHg 38%
    15:00 +18°C° 0 mm 1 mps 764 mmHg 45%
    16:00 +15°C° 0 mm 1 mps 764 mmHg 52%
    17:00 +13°C° 0 mm 1 mps 764 mmHg 59%
    18:00 +12°C° 0 mm 1 mps 764 mmHg 62%
    19:00 +11°C° 0 mm 1 mps 764 mmHg 65%
    20:00 +11°C° 0 mm 1 mps 764 mmHg 67%
    21:00 +9°C° 0 mm 2 mps 764 mmHg 68%
    22:00 +9°C° 0 mm 2 mps 764 mmHg 68%
    23:00 +9°C° 0 mm 2 mps 763 mmHg 68%

    24 Enero, Miércoles

    Tiempo Temperatura Precipitaciones Viento Presión Humedad
    00:00 +9°C° 0 mm 2 mps 763 mmHg 67%
    01:00 +8°C° 0 mm 2 mps 762 mmHg 67%
    02:00 +8°C° 0 mm 3 mps 762 mmHg 66%
    03:00 +8°C° 0 mm 3 mps 762 mmHg 67%
    04:00 +8°C° 0 mm 3 mps 761 mmHg 67%
    05:00 +7°C° 0 mm 3 mps 761 mmHg 67%
    06:00 +8°C° 0 mm 3 mps 761 mmHg 66%
    07:00 +7°C° 0 mm 4 mps 761 mmHg 65%
    08:00 +8°C° 0 mm 4 mps 761 mmHg 64%
    09:00 +11°C° 0 mm 4 mps 761 mmHg 59%
    10:00 +13°C° 0 mm 4 mps 761 mmHg 53%
    11:00 +17°C° 0 mm 4 mps 760 mmHg 48%
    12:00 +17°C° 0 mm 4 mps 760 mmHg 49%
    13:00 +16°C° 0 mm 5 mps 759 mmHg 51%
    14:00 +17°C° 0 mm 5 mps 759 mmHg 53%
    15:00 +15°C° 0 mm 5 mps 759 mmHg 61%
    16:00 +14°C° 0 mm 4 mps 759 mmHg 70%
    17:00 +12°C° 0 mm 4 mps 759 mmHg 79%
    18:00 +12°C° 0,1 mm 4 mps 760 mmHg 82%
    19:00 +12°C° 0,1 mm 4 mps 760 mmHg 86%
    20:00 +12°C° 0,1 mm 4 mps 760 mmHg 90%
    21:00 +11°C° 0,4 mm 3 mps 761 mmHg 91%
    22:00 +11°C° 0,4 mm 3 mps 761 mmHg 92%
    23:00 +11°C° 0,4 mm 3 mps 761 mmHg 94%
    Mostrar más